• In Portugal
  • List of Countries
  • For 7 days
  • Water Temperature
  • Satellite Maps
  • Weather Map
  • Weather Widgets
  • user-avatar
    Login

    Hourly Weather Viedma

    Today, 16 August, Thursday

    Time Temperature Precipitation Wind Pressure Humidity
    00:00 +10°C° 0 mm 8 mps 759 mmHg 45%
    01:00 +10°C° 0 mm 8 mps 759 mmHg 48%
    02:00 +10°C° 0 mm 8 mps 759 mmHg 51%
    03:00 +10°C° 0 mm 8 mps 759 mmHg 53%
    04:00 +9°C° 0 mm 8 mps 758 mmHg 54%
    05:00 +9°C° 0 mm 8 mps 758 mmHg 56%
    06:00 +9°C° 0 mm 8 mps 758 mmHg 56%
    07:00 +9°C° 0 mm 8 mps 758 mmHg 57%
    08:00 +9°C° 0 mm 8 mps 758 mmHg 57%
    09:00 +11°C° 0 mm 8 mps 758 mmHg 52%
    10:00 +13°C° 0 mm 8 mps 758 mmHg 47%
    11:00 +16°C° 0 mm 9 mps 758 mmHg 41%
    12:00 +17°C° 0 mm 8 mps 758 mmHg 39%
    13:00 +20°C° 0 mm 8 mps 757 mmHg 36%
    14:00 +21°C° 0 mm 8 mps 757 mmHg 33%
    15:00 +20°C° 0 mm 7 mps 757 mmHg 34%
    16:00 +20°C° 0 mm 6 mps 757 mmHg 36%
    17:00 +19°C° 0 mm 5 mps 757 mmHg 37%
    18:00 +17°C° 0 mm 5 mps 757 mmHg 39%
    19:00 +16°C° 0 mm 5 mps 758 mmHg 40%
    20:00 +16°C° 0 mm 5 mps 758 mmHg 42%
    21:00 +15°C° 0 mm 5 mps 758 mmHg 43%
    22:00 +15°C° 0 mm 5 mps 758 mmHg 45%
    23:00 +14°C° 0 mm 5 mps 758 mmHg 47%

    Tomorrow, 17 August, Friday

    Time Temperature Precipitation Wind Pressure Humidity
    00:00 +14°C° 0 mm 5 mps 758 mmHg 50%
    01:00 +14°C° 0 mm 5 mps 759 mmHg 52%
    02:00 +13°C° 0 mm 4 mps 759 mmHg 55%
    03:00 +13°C° 0 mm 4 mps 758 mmHg 57%
    04:00 +12°C° 0 mm 4 mps 758 mmHg 60%
    05:00 +12°C° 0 mm 4 mps 758 mmHg 62%
    06:00 +12°C° 0 mm 3 mps 758 mmHg 62%
    07:00 +12°C° 0 mm 3 mps 758 mmHg 62%
    08:00 +12°C° 0 mm 3 mps 759 mmHg 62%
    09:00 +13°C° 0 mm 3 mps 758 mmHg 60%
    10:00 +14°C° 0 mm 4 mps 758 mmHg 57%
    11:00 +15°C° 0 mm 4 mps 758 mmHg 55%
    12:00 +17°C° 0 mm 4 mps 758 mmHg 52%
    13:00 +18°C° 0 mm 4 mps 757 mmHg 49%
    14:00 +19°C° 0 mm 4 mps 756 mmHg 45%
    15:00 +19°C° 0 mm 3 mps 756 mmHg 47%
    16:00 +18°C° 0 mm 3 mps 756 mmHg 48%
    17:00 +18°C° 0 mm 2 mps 755 mmHg 49%
    18:00 +17°C° 0 mm 2 mps 755 mmHg 51%
    19:00 +17°C° 0 mm 2 mps 755 mmHg 52%
    20:00 +16°C° 0 mm 2 mps 755 mmHg 53%
    21:00 +16°C° 0 mm 3 mps 755 mmHg 54%
    22:00 +16°C° 0 mm 3 mps 755 mmHg 54%
    23:00 +15°C° 0 mm 4 mps 755 mmHg 55%

    Day after tomorrow, 18 August, Saturday

    Time Temperature Precipitation Wind Pressure Humidity
    00:00 +14°C° 0.2 mm 5 mps 756 mmHg 58%
    01:00 +14°C° 0.2 mm 7 mps 756 mmHg 61%
    02:00 +13°C° 0.2 mm 8 mps 756 mmHg 64%
    03:00 +12°C° 0 mm 9 mps 757 mmHg 58%
    04:00 +11°C° 0 mm 9 mps 757 mmHg 53%
    05:00 +9°C° 0 mm 10 mps 757 mmHg 48%
    06:00 +8°C° 0 mm 9 mps 758 mmHg 46%
    07:00 +9°C° 0 mm 8 mps 759 mmHg 44%
    08:00 +8°C° 0 mm 7 mps 760 mmHg 42%
    09:00 +9°C° 0 mm 8 mps 761 mmHg 38%
    10:00 +10°C° 0 mm 8 mps 762 mmHg 33%
    11:00 +11°C° 0 mm 9 mps 762 mmHg 29%
    12:00 +11°C° 0 mm 9 mps 762 mmHg 30%
    13:00 +11°C° 0 mm 9 mps 762 mmHg 30%
    14:00 +12°C° 0 mm 9 mps 762 mmHg 31%
    15:00 +11°C° 0 mm 9 mps 762 mmHg 34%
    16:00 +10°C° 0 mm 9 mps 763 mmHg 36%
    17:00 +8°C° 0 mm 10 mps 763 mmHg 38%
    18:00 +8°C° 0 mm 9 mps 764 mmHg 38%
    19:00 +7°C° 0 mm 8 mps 765 mmHg 37%
    20:00 +7°C° 0 mm 8 mps 766 mmHg 36%
    21:00 +6°C° 0 mm 8 mps 767 mmHg 39%
    22:00 +6°C° 0 mm 8 mps 767 mmHg 42%
    23:00 +6°C° 0 mm 9 mps 768 mmHg 44%

    19 August, Sunday

    Time Temperature Precipitation Wind Pressure Humidity
    00:00 +5°C° 0 mm 8 mps 769 mmHg 46%
    01:00 +5°C° 0 mm 8 mps 769 mmHg 48%
    02:00 +5°C° 0 mm 8 mps 770 mmHg 50%
    03:00 +5°C° 0 mm 8 mps 770 mmHg 51%
    04:00 +4°C° 0 mm 7 mps 770 mmHg 51%
    05:00 +4°C° 0 mm 7 mps 771 mmHg 52%
    06:00 +4°C° 0 mm 7 mps 772 mmHg 53%
    07:00 +4°C° 0 mm 6 mps 772 mmHg 54%
    08:00 +4°C° 0 mm 6 mps 773 mmHg 55%
    09:00 +5°C° 0 mm 6 mps 774 mmHg 52%
    10:00 +7°C° 0 mm 6 mps 774 mmHg 48%
    11:00 +8°C° 0 mm 6 mps 775 mmHg 45%
    12:00 +8°C° 0 mm 6 mps 775 mmHg 44%
    13:00 +9°C° 0 mm 5 mps 774 mmHg 43%
    14:00 +10°C° 0 mm 4 mps 774 mmHg 42%
    15:00 +9°C° 0 mm 3 mps 774 mmHg 43%
    16:00 +9°C° 0 mm 3 mps 774 mmHg 45%
    17:00 +8°C° 0 mm 2 mps 774 mmHg 47%
    18:00 +7°C° 0 mm 2 mps 774 mmHg 51%
    19:00 +6°C° 0 mm 2 mps 774 mmHg 55%
    20:00 +6°C° 0 mm 1 mps 775 mmHg 59%
    21:00 +5°C° 0 mm 2 mps 775 mmHg 61%
    22:00 +4°C° 0 mm 3 mps 774 mmHg 62%
    23:00 +4°C° 0 mm 3 mps 774 mmHg 64%

    20 August, Monday

    Time Temperature Precipitation Wind Pressure Humidity
    00:00 +3°C° 0 mm 4 mps 774 mmHg 67%
    01:00 +3°C° 0 mm 4 mps 774 mmHg 70%
    02:00 +2°C° 0 mm 5 mps 774 mmHg 73%
    03:00 +2°C° 0 mm 5 mps 773 mmHg 75%
    04:00 +2°C° 0 mm 5 mps 773 mmHg 77%
    05:00 +2°C° 0 mm 5 mps 772 mmHg 79%
    06:00 +2°C° 0 mm 6 mps 772 mmHg 75%
    07:00 +2°C° 0 mm 6 mps 772 mmHg 70%
    08:00 +2°C° 0 mm 6 mps 772 mmHg 66%
    09:00 +4°C° 0 mm 7 mps 771 mmHg 56%
    10:00 +6°C° 0 mm 7 mps 771 mmHg 46%
    11:00 +9°C° 0 mm 8 mps 771 mmHg 35%
    12:00 +10°C° 0 mm 8 mps 770 mmHg 34%
    13:00 +10°C° 0 mm 8 mps 769 mmHg 33%
    14:00 +11°C° 0 mm 8 mps 768 mmHg 32%
    15:00 +11°C° 0 mm 7 mps 768 mmHg 34%
    16:00 +10°C° 0 mm 7 mps 767 mmHg 36%
    17:00 +10°C° 0 mm 6 mps 767 mmHg 38%
    18:00 +9°C° 0 mm 6 mps 767 mmHg 41%
    19:00 +8°C° 0 mm 6 mps 767 mmHg 44%
    20:00 +6°C° 0 mm 7 mps 766 mmHg 47%
    21:00 +6°C° 0 mm 7 mps 766 mmHg 49%
    22:00 +6°C° 0 mm 7 mps 766 mmHg 50%
    23:00 +5°C° 0 mm 7 mps 766 mmHg 52%

    21 August, Tuesday

    Time Temperature Precipitation Wind Pressure Humidity
    00:00 +5°C° 0 mm 7 mps 765 mmHg 53%
    01:00 +5°C° 0 mm 8 mps 765 mmHg 54%
    02:00 +4°C° 0 mm 8 mps 765 mmHg 54%
    03:00 +4°C° 0 mm 8 mps 764 mmHg 54%
    04:00 +4°C° 0 mm 8 mps 764 mmHg 55%
    05:00 +2°C° 0 mm 8 mps 763 mmHg 55%
    06:00 +2°C° 0 mm 8 mps 763 mmHg 54%
    07:00 +4°C° 0 mm 8 mps 763 mmHg 54%
    08:00 +4°C° 0 mm 8 mps 763 mmHg 53%
    09:00 +6°C° 0 mm 9 mps 763 mmHg 48%
    10:00 +8°C° 0 mm 9 mps 762 mmHg 43%
    11:00 +11°C° 0 mm 9 mps 762 mmHg 38%
    12:00 +12°C° 0 mm 9 mps 761 mmHg 36%
    13:00 +15°C° 0 mm 9 mps 761 mmHg 33%
    14:00 +16°C° 0 mm 9 mps 760 mmHg 31%
    15:00 +16°C° 0 mm 8 mps 759 mmHg 32%
    16:00 +15°C° 0 mm 7 mps 759 mmHg 33%
    17:00 +15°C° 0 mm 7 mps 759 mmHg 35%
    18:00 +14°C° 0 mm 7 mps 759 mmHg 37%
    19:00 +12°C° 0 mm 7 mps 759 mmHg 39%
    20:00 +11°C° 0 mm 8 mps 759 mmHg 41%
    21:00 +10°C° 0 mm 8 mps 758 mmHg 44%
    22:00 +10°C° 0 mm 9 mps 758 mmHg 47%
    23:00 +10°C° 0 mm 9 mps 758 mmHg 50%
    Show more